Regional Weather Roundup
Issued by NWS

Home | Current Version | Previous Version | Text Only | Print | Product List | Glossary On
Versions: 1 2 3 4 5 6 7 8 9 10 11 12 13 14 15 16 17 18 19 20 21 22 23 24 25 26 27 28 29 30 31 32 33 34 35 36 37 38 39 40 41 42 43 44 45 46 47 48 49 50
000
ASUS44 KOUN 020910
RWROK

WEATHER ROUNDUP FOR OKLAHOMA
NATIONAL WEATHER SERVICE NORMAN OK
400 AM CDT TUE SEP 02 2014

NOTE: "FAIR" INDICATES FEW OR NO CLOUDS BELOW 12,000 FEET WITH NO
      SIGNIFICANT WEATHER AND/OR OBSTRUCTIONS TO VISIBILITY.

OKZ001>007-009>012-014-015-017-021000-
NORTHWEST OKLAHOMA AND THE PANHANDLE

CITY           SKY/WX    TMP DP  RH WIND       PRES   REMARKS
GAGE           CLEAR     68  67  96 NE7       29.88R
ENID/WOODRING  CLEAR     75  72  88 E9        29.82F
$$

OKZ016-021>023-033>039-044-045-021000-
SOUTHWEST OKLAHOMA

CITY           SKY/WX    TMP DP  RH WIND       PRES   REMARKS
LAWTON/REGL    MOCLDY    81  67  62 S8        29.84F
LAWTON/FT SILL MOCLDY    81  68  63 S10       29.83F
FREDERICK      CLEAR     81  67  62 S12       29.81R
CLINTON        CLEAR     80  65  59 S17       29.85S
HOBART         CLEAR     77  67  71 S13       29.84S
ALTUS AFB      CLEAR     78  67  69 SE8       29.84R
$$

OKZ018>020-024>031-021000-
CENTRAL OKLAHOMA

CITY           SKY/WX    TMP DP  RH WIND       PRES   REMARKS
OKLAHOMA CITY  MOCLDY    78  67  68 S9        29.85R
OKC/WILEY POST PTCLDY    81  67  62 S14       29.84R
OKC/TINKER AFB CLEAR     80  67  63 S15G23    29.85R
STILLWATER     PTCLDY    76  68  76 E6        29.84S
GUTHRIE        CLEAR     82  67  60 S6        29.84R
$$

OKZ008-013-054>072-021000-
NORTHEAST OKLAHOMA

CITY           SKY/WX    TMP DP  RH WIND       PRES   REMARKS
TULSA          CLOUDY    80  69  69 E6        29.87R
TULSA/JONES    MOCLDY    76  69  79 CALM      29.87R
PONCA CITY     CLOUDY    75  70  84 E16       29.87F
BARTLESVILLE   TSTM      71 N/A N/A CALM      29.93R
MUSKOGEE       MOCLDY    77  68  73 SE6       29.89R
$$

OKZ032-040>043-046>053-073>077-021000-
SOUTH CENTRAL/SOUTHEAST OKLAHOMA

CITY           SKY/WX    TMP DP  RH WIND       PRES   REMARKS
ARDMORE/DWNTWN CLEAR     81  66  61 S6        29.87R
MCALESTER      MOCLDY    80  71  74 S10G16    29.89R
$$




USA.gov is the U.S. government's official web portal to all federal, state and local government web resources and services.